Location: Britannia Beach
(45.3521°N, 62.9901°W)
Time: 20:48:32
(UTC+00:00)

X-37B - Visible Passes

Search period start: 01 August 2021 00:00
Search period end: 11 August 2021 00:00
Orbit: 383 x 392 km, 45.0° (Epoch: 01 July)

Date Brightness Start Highest point End Pass type
(mag) Time Alt. Az. Time Alt. Az. Time Alt. Az.
01 Aug 1.9 08:08:05 10° SW 08:10:53 29° SSE 08:13:42 10° E visible
02 Aug 2.5 07:12:16 18° SSE 07:12:42 18° SSE 07:15:00 10° ESE visible
03 Aug 1.2 07:48:41 19° SW 07:50:39 43° SSE 07:53:43 10° E visible
04 Aug 1.9 06:52:48 28° SE 06:52:48 28° SE 06:55:13 10° E visible
04 Aug 0.6 08:25:37 10° WSW 08:28:49 78° S 08:32:01 10° E visible
05 Aug 0.7 07:29:11 31° SW 07:30:28 62° SSE 07:33:39 10° E visible
06 Aug 2.1 06:33:19 29° ESE 06:33:19 29° ESE 06:35:14 10° E visible
06 Aug 0.6 08:05:35 11° W 08:08:42 87° S 08:11:55 10° E visible
07 Aug 0.5 07:09:44 55° WSW 07:10:20 78° S 07:13:32 10° E visible
08 Aug 2.8 06:13:56 21° E 06:13:56 21° E 06:15:09 10° E visible
08 Aug 0.5 07:46:13 17° W 07:48:35 85° S 07:51:48 10° E visible
09 Aug 0.6 06:50:30 72° E 06:50:30 72° E 06:53:25 10° E visible
09 Aug 0.7 08:23:40 10° W 08:26:49 56° SSW 08:29:57 10° ESE visible
10 Aug 3.7 05:54:54 11° E 05:54:54 11° E 05:55:03 10° E visible
10 Aug 0.5 07:27:12 33° W 07:28:29 74° S 07:31:40 10° ESE visible
